weather.gov     
National Weather Service

Regional Weather Roundup
NWS Homepage
This page is being discontinued on March 12, 2014.
The same data is available at this site. Please update your bookmarks.
Thank you, and we apologize for the inconvenience.
Please send an email to SR-SRH.Webmaster@noaa.gov with any concerns.


Current Version
Previous Version:    01  02  03  04  05  06  07  08  09  10  11  12  13  14  15  16  17  18  19  20  21  22  23  24  25  26  27  28  29  30  
   31  32  33  34  35  36  37  38  39  40  41  42  43  44  45  46  47  48  49  50  51  52  53  54  55  
[Printable]
632
ASCA42 TJSJ 290011
RWRPR
PUERTO RICO/U.S. VIRGIN ISLANDS HOURLY WEATHER ROUNDUP
NATIONAL WEATHER SERVICE SAN JUAN PR
800 PM AST WED JAN 28 2015

PRZ001-004-290100-
PUERTO RICO

CITY           SKY/WX    TMP DP  RH WIND       PRES   REMARKS
SAN JUAN LMM   PTCLDY    79  70  73 E7        29.98R
AGUADILLA      CLEAR     75  68  78 CALM      29.99R
CEIBA          CLEAR     73  70  88 CALM      30.00R
$$

PRZ006-007-290100-
U.S. VIRGIN ISLANDS

CITY           SKY/WX    TMP DP  RH WIND       PRES   REMARKS
CHARLOTTE AMA  PTCLDY    79  72  78 SE8       29.98
CHRISTIANSTED  MOCLDY    75  70  83 N3        29.99
$$

HOURLY WEATHER ROUNDUP FOR THE NEWS MEDIA

CITY           SKY/WX    TMP DP  RH WIND       PRES   REMARKS
MIAMI          CLEAR     63  30  28 N6        30.17R
ORLANDO        CLEAR     52  39  61 NE10      30.25R
NEW YORK       CLEAR     30   9  41 N9        30.20R WCI  22
NEWARK         CLEAR     29   5  36 NW7       30.20R WCI  22
CHICAGO        CLOUDY    31  21  66 SE16G23   29.99F WCI  20
HARTFORD       CLEAR     14   8  77 CALM      30.12R
BOSTON         PTCLDY    23   8  52 NW10      30.12R WCI  12
DALLAS         MOCLDY    74  43  32 S14       29.98F
PHILADELPHIA   CLEAR     32   3  29 NW8       30.25R WCI  25




U.S. Dept. of Commerce
NOAA National Weather Service
1325 East West Highway
Silver Spring, MD 20910
E-mail: w-nws.webmaster@noaa.gov
Page last modified: May 16, 2007
NATIONAL WEATHER SERVICE: for Safety, for Work, for Fun - FOR LIFE